| time (UTC) | temp F | wind direction | speed MPH | gust MPH | rain 1hr in | rain 24hr in | rain mn in | humidity % | barometer mb |
| 20260503002015 | 46 | 311 | 0.0 | 6.0 | 0.00 | 0.00 | 0.00 | 52 | 1015.5 |
| 20260503001533 | 46 | 285 | 0.0 | 2.0 | 0.00 | 0.00 | 0.00 | 51 | 1015.4 |
| 20260503001011 | 46 | 304 | 0.0 | 3.0 | 0.00 | 0.00 | 0.00 | 49 | 1015.4 |
| 20260503000532 | 47 | 306 | 0.0 | 5.0 | 0.00 | 0.00 | 0.00 | 50 | 1015.3 |
| 20260503000051 | 47 | 310 | 1.0 | 6.0 | 0.00 | 0.00 | 0.00 | 50 | 1015.3 |
| 20260502235535 | 47 | 259 | 2.0 | 7.0 | 0.00 | 0.00 | 0.00 | 48 | 1015.3 |
| 20260502235047 | 48 | 315 | 0.0 | 8.0 | 0.00 | 0.00 | 0.00 | 48 | 1015.3 |
| 20260502234534 | 48 | 283 | 3.0 | 9.0 | 0.00 | 0.00 | 0.00 | 47 | 1015.3 |
| 20260502234057 | 48 | 318 | 2.0 | 9.0 | 0.00 | 0.00 | 0.00 | 48 | 1015.3 |
| 20260502233515 | 48 | 302 | 3.0 | 8.0 | 0.00 | 0.00 | 0.00 | 48 | 1015.3 |
| 20260502233051 | 48 | 259 | 3.0 | 7.0 | 0.00 | 0.00 | 0.00 | 48 | 1015.3 |
| 20260502232530 | 48 | 288 | 1.0 | 7.0 | 0.00 | 0.00 | 0.00 | 48 | 1015.3 |
| 20260502232017 | 48 | 317 | 3.0 | 9.0 | 0.00 | 0.00 | 0.00 | 48 | 1015.4 |
| 20260502231600 | 49 | 323 | 2.0 | 9.0 | 0.00 | 0.00 | 0.00 | 49 | 1015.4 |
| 20260502231007 | 49 | 318 | 3.0 | 7.0 | 0.00 | 0.00 | 0.00 | 49 | 1015.4 |
| 20260502230527 | 49 | 252 | 2.0 | 7.0 | 0.00 | 0.00 | 0.00 | 47 | 1015.3 |
| 20260502230011 | 49 | 304 | 1.0 | 6.0 | 0.00 | 0.00 | 0.00 | 47 | 1015.3 |
| 20260502225544 | 49 | 295 | 3.0 | 8.0 | 0.00 | 0.00 | 0.00 | 49 | 1015.4 |
| 20260502225019 | 49 | 253 | 0.0 | 8.0 | 0.00 | 0.00 | 0.00 | 49 | 1015.4 |
| 20260502224537 | 49 | 298 | 3.0 | 8.0 | 0.00 | 0.00 | 0.00 | 47 | 1015.4 |
| 20260502224015 | 49 | 288 | 4.0 | 8.0 | 0.00 | 0.00 | 0.00 | 49 | 1015.5 |
| 20260502223535 | 49 | 315 | 1.0 | 10.0 | 0.00 | 0.00 | 0.00 | 51 | 1015.5 |
| 20260502223017 | 48 | 294 | 2.0 | 10.0 | 0.00 | 0.00 | 0.00 | 50 | 1015.6 |
| 20260502222553 | 48 | 284 | 2.0 | 7.0 | 0.00 | 0.00 | 0.00 | 52 | 1015.6 |
| 20260502222012 | 48 | 282 | 1.0 | 7.0 | 0.00 | 0.00 | 0.00 | 52 | 1015.6 |
| 20260502221543 | 48 | 309 | 1.0 | 7.0 | 0.00 | 0.00 | 0.00 | 51 | 1015.6 |
| 20260502221003 | 48 | 315 | 0.0 | 9.0 | 0.00 | 0.00 | 0.00 | 53 | 1015.5 |
| 20260502220541 | 49 | 323 | 4.0 | 9.0 | 0.00 | 0.00 | 0.00 | 50 | 1015.5 |
| 20260502220012 | 49 | 323 | 2.0 | 11.0 | 0.00 | 0.00 | 0.00 | 51 | 1015.5 |
| 20260502215543 | 49 | 229 | 3.0 | 11.0 | 0.00 | 0.00 | 0.00 | 49 | 1015.6 |
| 20260502215022 | 48 | 279 | 1.0 | 10.0 | 0.00 | 0.00 | 0.00 | 52 | 1015.5 |
| 20260502214544 | 47 | 317 | 5.0 | 10.0 | 0.00 | 0.00 | 0.00 | 53 | 1015.6 |
| 20260502214022 | 47 | 286 | 0.0 | 11.0 | 0.00 | 0.00 | 0.00 | 54 | 1015.6 |
| 20260502213543 | 47 | 288 | 4.0 | 11.0 | 0.00 | 0.00 | 0.00 | 52 | 1015.6 |
| 20260502213019 | 47 | 248 | 1.0 | 10.0 | 0.00 | 0.00 | 0.00 | 50 | 1015.6 |
| 20260502212541 | 47 | 296 | 3.0 | 10.0 | 0.00 | 0.00 | 0.00 | 53 | 1015.6 |
| 20260502212019 | 47 | 291 | 0.0 | 7.0 | 0.00 | 0.00 | 0.00 | 56 | 1015.7 |
| 20260502211545 | 47 | 300 | 2.0 | 7.0 | 0.00 | 0.00 | 0.00 | 55 | 1015.7 |
| 20260502211026 | 47 | 291 | 0.0 | 5.0 | 0.00 | 0.00 | 0.00 | 56 | 1015.7 |
| 20260502210504 | 47 | 272 | 0.0 | 5.0 | 0.00 | 0.00 | 0.00 | 53 | 1015.8 |
| 20260502210044 | 46 | 316 | 1.0 | 7.0 | 0.00 | 0.00 | 0.00 | 55 | 1015.8 |
| 20260502205514 | 46 | 319 | 1.0 | 7.0 | 0.00 | 0.00 | 0.00 | 54 | 1015.8 |
| 20260502205044 | 46 | 275 | 3.0 | 7.0 | 0.00 | 0.00 | 0.00 | 53 | 1015.8 |
| 20260502204522 | 46 | 314 | 2.0 | 11.0 | 0.00 | 0.00 | 0.00 | 53 | 1015.9 |
| 20260502204006 | 46 | 317 | 1.0 | 7.0 | 0.00 | 0.00 | 0.00 | 54 | 1015.8 |
| 20260502203524 | 46 | 296 | 2.0 | 14.0 | 0.00 | 0.00 | 0.00 | 49 | 1015.9 |
| 20260502203007 | 47 | 306 | 4.0 | 14.0 | 0.00 | 0.00 | 0.00 | 50 | 1015.9 |
| 20260502202544 | 47 | 15 | 2.0 | 12.0 | 0.00 | 0.00 | 0.00 | 50 | 1015.9 |
| 20260502202056 | 47 | 327 | 3.0 | 10.0 | 0.00 | 0.00 | 0.00 | 52 | 1016.1 |
| 20260502201545 | 47 | 316 | 2.0 | 11.0 | 0.00 | 0.00 | 0.00 | 49 | 1016.1 |
| 20260502201012 | 47 | 323 | 4.0 | 11.0 | 0.00 | 0.00 | 0.00 | 51 | 1016.2 |
| 20260502200545 | 46 | 325 | 5.0 | 10.0 | 0.00 | 0.00 | 0.00 | 51 | 1016.2 |
| 20260502200100 | 46 | 291 | 4.0 | 9.0 | 0.00 | 0.00 | 0.00 | 51 | 1016.2 |
| 20260502200001 | 46 | 304 | 3.0 | 9.0 | 0.00 | 0.00 | 0.00 | 51 | 1016.2 |
| 20260502195538 | 46 | 9 | 3.0 | 9.0 | 0.00 | 0.00 | 0.00 | 50 | 1016.2 |
| 20260502195056 | 47 | 355 | 1.0 | 8.0 | 0.00 | 0.00 | 0.00 | 49 | 1016.3 |
| 20260502194538 | 47 | 299 | 3.0 | 8.0 | 0.00 | 0.00 | 0.00 | 53 | 1016.3 |
| 20260502194016 | 47 | 291 | 2.0 | 7.0 | 0.00 | 0.00 | 0.00 | 51 | 1016.4 |
| 20260502193538 | 47 | 318 | 0.0 | 8.0 | 0.00 | 0.00 | 0.00 | 54 | 1016.5 |
| 20260502193014 | 47 | 333 | 1.0 | 8.0 | 0.00 | 0.00 | 0.00 | 53 | 1016.4 |
| 20260502192537 | 47 | 336 | 2.0 | 7.0 | 0.00 | 0.00 | 0.00 | 52 | 1016.5 |
| 20260502192011 | 47 | 317 | 2.0 | 10.0 | 0.00 | 0.00 | 0.00 | 52 | 1016.5 |
| 20260502191529 | 47 | 320 | 3.0 | 10.0 | 0.00 | 0.00 | 0.00 | 53 | 1016.5 |
| 20260502191004 | 46 | 284 | 3.0 | 10.0 | 0.00 | 0.00 | 0.00 | 53 | 1016.6 |
| 20260502190524 | 46 | 266 | 2.0 | 9.0 | 0.00 | 0.00 | 0.00 | 52 | 1016.7 |
| 20260502190059 | 46 | 334 | 2.0 | 6.0 | 0.00 | 0.00 | 0.00 | 52 | 1016.8 |
| 20260502185540 | 46 | 317 | 2.0 | 8.0 | 0.00 | 0.00 | 0.00 | 52 | 1016.8 |
| 20260502185014 | 46 | 304 | 2.0 | 8.0 | 0.00 | 0.00 | 0.00 | 50 | 1016.8 |
| 20260502184557 | 46 | 331 | 3.0 | 11.0 | 0.00 | 0.00 | 0.00 | 51 | 1016.8 |
| 20260502184014 | 46 | 241 | 3.0 | 11.0 | 0.00 | 0.00 | 0.00 | 53 | 1016.8 |
| 20260502183550 | 46 | 309 | 4.0 | 7.0 | 0.00 | 0.00 | 0.00 | 52 | 1016.9 |
| 20260502183034 | 46 | 294 | 1.0 | 7.0 | 0.00 | 0.00 | 0.00 | 52 | 1016.9 |
| 20260502182515 | 45 | 273 | 2.0 | 8.0 | 0.00 | 0.00 | 0.00 | 54 | 1017.0 |
| 20260502182052 | 45 | 302 | 4.0 | 8.0 | 0.00 | 0.00 | 0.00 | 52 | 1017.0 |
| 20260502181600 | 45 | 319 | 2.0 | 6.0 | 0.00 | 0.00 | 0.00 | 52 | 1017.1 |
| 20260502181503 | 45 | 323 | 3.0 | 6.0 | 0.00 | 0.00 | 0.00 | 54 | 1017.1 |
| 20260502181038 | 45 | 328 | 1.0 | 6.0 | 0.00 | 0.00 | 0.00 | 56 | 1017.1 |
| 20260502180556 | 45 | 315 | 0.0 | 7.0 | 0.00 | 0.00 | 0.00 | 54 | 1017.1 |
| 20260502170505 | 43 | 306 | 2.0 | 6.0 | 0.00 | 0.00 | 0.00 | 57 | 1017.6 |
| 20260502164052 | 44 | 349 | 1.0 | 6.0 | 0.00 | 0.00 | 0.00 | 56 | 1017.7 |
| 20260502163514 | 44 | 312 | 0.0 | 8.0 | 0.00 | 0.00 | 0.00 | 57 | 1017.8 |
| 20260502163051 | 44 | 351 | 2.0 | 8.0 | 0.00 | 0.00 | 0.00 | 54 | 1017.8 |
| 20260502162531 | 44 | 305 | 1.0 | 6.0 | 0.00 | 0.00 | 0.00 | 61 | 1017.8 |
| 20260502162050 | 43 | 304 | 0.0 | 6.0 | 0.00 | 0.00 | 0.00 | 58 | 1017.8 |
| 20260502161524 | 43 | 300 | 0.0 | 13.0 | 0.00 | 0.00 | 0.00 | 56 | 1017.8 |
| 20260502161040 | 43 | 330 | 0.0 | 13.0 | 0.00 | 0.00 | 0.00 | 57 | 1017.9 |
| 20260502160518 | 43 | 5 | 3.0 | 8.0 | 0.00 | 0.00 | 0.00 | 57 | 1017.8 |
| 20260502152040 | 42 | 330 | 2.0 | 10.0 | 0.00 | 0.00 | 0.00 | 58 | 1017.7 |
| 20260502151518 | 42 | 339 | 3.0 | 10.0 | 0.00 | 0.00 | 0.00 | 57 | 1017.6 |
| 20260502151040 | 43 | 333 | 1.0 | 11.0 | 0.00 | 0.00 | 0.00 | 59 | 1017.6 |
| 20260502150556 | 43 | 344 | 3.0 | 11.0 | 0.00 | 0.00 | 0.00 | 61 | 1017.6 |
| 20260502130526 | 38 | 342 | 3.0 | 9.0 | 0.00 | 0.00 | 0.00 | 77 | 1017.8 |
| 20260502123541 | 36 | 348 | 4.0 | 6.0 | 0.00 | 0.00 | 0.00 | 79 | 1017.7 |
| 20260502123019 | 36 | 327 | 3.0 | 7.0 | 0.00 | 0.00 | 0.00 | 80 | 1017.7 |
| 20260502122559 | 36 | 340 | 2.0 | 7.0 | 0.00 | 0.00 | 0.00 | 79 | 1017.7 |
| 20260502122021 | 35 | 346 | 2.0 | 6.0 | 0.00 | 0.00 | 0.00 | 81 | 1017.6 |
| 20260502121558 | 35 | 331 | 1.0 | 5.0 | 0.00 | 0.00 | 0.00 | 82 | 1017.6 |
| 20260502121040 | 35 | 344 | 1.0 | 6.0 | 0.00 | 0.00 | 0.00 | 83 | 1017.5 |
| 20260502120556 | 34 | 349 | 3.0 | 6.0 | 0.00 | 0.00 | 0.00 | 82 | 1017.5 |
| 20260502115514 | 33 | 322 | 2.0 | 6.0 | 0.00 | 0.00 | 0.00 | 84 | 1017.4 |
| 20260502115033 | 33 | 322 | 0.0 | 6.0 | 0.00 | 0.00 | 0.00 | 85 | 1017.3 |
| 20260502114516 | 33 | 346 | 0.0 | 6.0 | 0.00 | 0.00 | 0.00 | 86 | 1017.3 |
| 20260502114052 | 32 | 360 | 1.0 | 6.0 | 0.00 | 0.00 | 0.00 | 86 | 1017.3 |
| 20260502113511 | 32 | 324 | 0.0 | 3.0 | 0.00 | 0.00 | 0.00 | 87 | 1017.2 |
| 20260502113032 | 31 | 323 | 0.0 | 3.0 | 0.00 | 0.00 | 0.00 | 87 | 1017.3 |
| 20260502112513 | 31 | 323 | 0.0 | 3.0 | 0.00 | 0.00 | 0.00 | 87 | 1017.1 |
| 20260502112051 | 31 | 324 | 0.0 | 3.0 | 0.00 | 0.00 | 0.00 | 87 | 1017.1 |
| 20260502111516 | 30 | 323 | 0.0 | 3.0 | 0.00 | 0.00 | 0.00 | 87 | 1017.1 |
| 20260502111051 | 30 | 323 | 0.0 | 0.0 | 0.00 | 0.00 | 0.00 | 87 | 1017.1 |
| 20260502110515 | 30 | 323 | 0.0 | 0.0 | 0.00 | 0.00 | 0.00 | 87 | 1017.0 |
| 20260502110051 | 30 | 323 | 0.0 | 0.0 | 0.00 | 0.00 | 0.00 | 87 | 1017.0 |
| 20260502105534 | 30 | 323 | 0.0 | 0.0 | 0.00 | 0.00 | 0.00 | 87 | 1016.9 |
| 20260502105052 | 30 | 323 | 0.0 | 0.0 | 0.00 | 0.00 | 0.00 | 86 | 1016.8 |
| 20260502104516 | 30 | 323 | 0.0 | 0.0 | 0.00 | 0.00 | 0.00 | 86 | 1016.8 |
| 20260502104051 | 30 | 323 | 0.0 | 0.0 | 0.00 | 0.00 | 0.00 | 87 | 1016.8 |
| 20260502103533 | 30 | 323 | 0.0 | 0.0 | 0.00 | 0.00 | 0.00 | 86 | 1016.9 |
| 20260502103106 | 30 | 323 | 0.0 | 0.0 | 0.00 | 0.00 | 0.00 | 86 | 1016.9 |
| 20260502102534 | 30 | 323 | 0.0 | 0.0 | 0.00 | 0.00 | 0.00 | 86 | 1016.9 |
| 20260502102016 | 30 | 323 | 0.0 | 0.0 | 0.00 | 0.00 | 0.00 | 86 | 1016.8 |
| 20260502101605 | 31 | 323 | 0.0 | 0.0 | 0.00 | 0.00 | 0.00 | 86 | 1016.8 |
| 20260502101015 | 31 | 323 | 0.0 | 0.0 | 0.00 | 0.00 | 0.00 | 86 | 1016.8 |
| 20260502100549 | 31 | 323 | 0.0 | 0.0 | 0.00 | 0.00 | 0.00 | 86 | 1016.8 |
| 20260502091507 | 31 | 315 | 0.0 | 0.0 | 0.00 | 0.01 | 0.00 | 86 | 1016.6 |
| 20260502091027 | 31 | 315 | 0.0 | 0.0 | 0.00 | 0.01 | 0.00 | 86 | 1016.6 |
| 20260502090505 | 31 | 315 | 0.0 | 4.0 | 0.00 | 0.01 | 0.00 | 85 | 1016.6 |
| 20260502071535 | 33 | 281 | 0.0 | 0.0 | 0.00 | 0.02 | 0.00 | 81 | 1016.2 |
| 20260502071013 | 33 | 280 | 0.0 | 0.0 | 0.00 | 0.02 | 0.00 | 81 | 1016.2 |
| 20260502070535 | 33 | 280 | 0.0 | 1.0 | 0.00 | 0.02 | 0.00 | 81 | 1016.2 |
| 20260502070022 | 33 | 280 | 0.0 | 4.0 | 0.00 | 0.08 | 0.00 | 80 | 1016.2 |
| 20260502065557 | 33 | 280 | 0.0 | 4.0 | 0.00 | 0.08 | 0.00 | 80 | 1016.1 |
| 20260502065024 | 33 | 300 | 0.0 | 3.0 | 0.00 | 0.08 | 0.00 | 80 | 1016.2 |
| 20260502064602 | 34 | 300 | 0.0 | 2.0 | 0.00 | 0.08 | 0.00 | 79 | 1016.2 |
| 20260502064021 | 34 | 300 | 0.0 | 2.0 | 0.00 | 0.08 | 0.00 | 79 | 1016.2 |
| 20260502063556 | 34 | 300 | 0.0 | 0.0 | 0.00 | 0.08 | 0.00 | 78 | 1016.3 |
| 20260502063042 | 34 | 300 | 0.0 | 5.0 | 0.00 | 0.08 | 0.00 | 77 | 1016.3 |
| 20260502062557 | 35 | 300 | 0.0 | 5.0 | 0.00 | 0.08 | 0.00 | 77 | 1016.4 |
| 20260502062039 | 35 | 308 | 0.0 | 3.0 | 0.00 | 0.08 | 0.00 | 77 | 1016.4 |
| 20260502061557 | 35 | 308 | 0.0 | 3.0 | 0.00 | 0.08 | 0.00 | 76 | 1016.4 |
| 20260502061037 | 35 | 293 | 0.0 | 6.0 | 0.00 | 0.08 | 0.00 | 76 | 1016.4 |
| 20260502060549 | 36 | 295 | 0.0 | 2.0 | 0.00 | 0.08 | 0.00 | 75 | 1016.5 |
| 20260502060031 | 36 | 308 | 0.0 | 3.0 | 0.00 | 0.10 | 0.00 | 75 | 1016.5 |
| 20260502055509 | 36 | 308 | 0.0 | 3.0 | 0.00 | 0.10 | 0.00 | 74 | 1016.5 |
| 20260502055032 | 36 | 308 | 0.0 | 4.0 | 0.00 | 0.10 | 0.00 | 74 | 1016.5 |
| 20260502054508 | 36 | 308 | 0.0 | 5.0 | 0.00 | 0.10 | 0.00 | 74 | 1016.6 |
| 20260502054030 | 37 | 309 | 1.0 | 5.0 | 0.00 | 0.10 | 0.00 | 74 | 1016.6 |
| 20260502053505 | 37 | 318 | 0.0 | 3.0 | 0.00 | 0.10 | 0.00 | 73 | 1016.6 |
| 20260502053033 | 37 | 319 | 0.0 | 4.0 | 0.00 | 0.10 | 0.00 | 73 | 1016.6 |
| 20260502052511 | 37 | 286 | 1.0 | 4.0 | 0.00 | 0.10 | 0.00 | 72 | 1016.6 |
| 20260502052050 | 37 | 284 | 1.0 | 5.0 | 0.00 | 0.10 | 0.00 | 73 | 1016.6 |
| 20260502051513 | 38 | 297 | 2.0 | 8.0 | 0.00 | 0.10 | 0.00 | 72 | 1016.6 |
| 20260502051046 | 38 | 288 | 2.0 | 8.0 | 0.00 | 0.10 | 0.00 | 72 | 1016.5 |
| 20260502050522 | 38 | 283 | 2.0 | 6.0 | 0.00 | 0.10 | 0.00 | 72 | 1016.5 |
| 20260502050045 | 38 | 312 | 0.0 | 7.0 | 0.00 | 0.14 | 0.00 | 72 | 1016.5 |
| 20260502045523 | 38 | 317 | 2.0 | 7.0 | 0.00 | 0.14 | 0.00 | 72 | 1016.4 |
| 20260502045045 | 38 | 302 | 1.0 | 6.0 | 0.00 | 0.14 | 0.00 | 72 | 1016.4 |
| 20260502044527 | 39 | 273 | 2.0 | 6.0 | 0.00 | 0.14 | 0.00 | 71 | 1016.4 |
| 20260502044004 | 39 | 308 | 1.0 | 12.0 | 0.00 | 0.14 | 0.00 | 72 | 1016.3 |
| 20260502043527 | 39 | 300 | 3.0 | 12.0 | 0.00 | 0.14 | 0.00 | 72 | 1016.4 |
| 20260502043108 | 39 | 298 | 1.0 | 5.0 | 0.00 | 0.14 | 0.00 | 72 | 1016.3 |
| 20260502043001 | 39 | 298 | 0.0 | 5.0 | 0.00 | 0.14 | 0.00 | 73 | 1016.3 |
| 20260502042524 | 39 | 317 | 1.0 | 5.0 | 0.00 | 0.14 | 0.00 | 73 | 1016.2 |
| 20260502042059 | 39 | 313 | 1.0 | 5.0 | 0.00 | 0.14 | 0.00 | 72 | 1016.0 |
| 20260502042003 | 39 | 313 | 0.0 | 5.0 | 0.00 | 0.14 | 0.00 | 72 | 1016.0 |
| 20260502041522 | 39 | 332 | 0.0 | 6.0 | 0.00 | 0.14 | 0.00 | 72 | 1016.0 |
| 20260502041058 | 39 | 341 | 2.0 | 6.0 | 0.00 | 0.14 | 0.00 | 72 | 1016.1 |
| 20260502040538 | 39 | 317 | 1.0 | 6.0 | 0.00 | 0.14 | 0.00 | 72 | 1016.0 |
| 20260502040016 | 39 | 316 | 0.0 | 5.0 | 0.00 | 0.20 | 0.14 | 73 | 1016.0 |
| 20260502035532 | 39 | 302 | 0.0 | 3.0 | 0.00 | 0.20 | 0.14 | 73 | 1015.9 |
| 20260502035008 | 39 | 301 | 0.0 | 4.0 | 0.00 | 0.20 | 0.14 | 74 | 1015.9 |
| 20260502034528 | 39 | 296 | 0.0 | 4.0 | 0.00 | 0.20 | 0.14 | 74 | 1015.9 |
| 20260502034006 | 39 | 299 | 0.0 | 8.0 | 0.00 | 0.20 | 0.14 | 74 | 1016.0 |
| 20260502033525 | 39 | 301 | 1.0 | 8.0 | 0.00 | 0.20 | 0.14 | 75 | 1016.0 |
| 20260502033056 | 39 | 288 | 1.0 | 6.0 | 0.00 | 0.20 | 0.14 | 76 | 1015.9 |
| 20260502032539 | 39 | 315 | 0.0 | 7.0 | 0.00 | 0.20 | 0.14 | 77 | 1016.0 |
| 20260502032019 | 38 | 258 | 0.0 | 4.0 | 0.00 | 0.20 | 0.14 | 77 | 1015.9 |
| 20260502031543 | 38 | 295 | 0.0 | 6.0 | 0.00 | 0.20 | 0.14 | 78 | 1015.8 |
| 20260502031022 | 38 | 302 | 1.0 | 6.0 | 0.00 | 0.20 | 0.14 | 80 | 1015.7 |
| 20260502030544 | 38 | 323 | 0.0 | 1.0 | 0.00 | 0.20 | 0.14 | 79 | 1015.7 |
| 20260502030026 | 37 | 323 | 0.0 | 0.0 | 0.00 | 0.22 | 0.14 | 79 | 1015.7 |
| 20260502025557 | 37 | 323 | 0.0 | 0.0 | 0.00 | 0.22 | 0.14 | 79 | 1015.7 |
| 20260502025502 | 37 | 323 | 0.0 | 0.0 | 0.00 | 0.22 | 0.14 | 79 | 1015.7 |
| 20260502025047 | 37 | 323 | 0.0 | 0.0 | 0.00 | 0.22 | 0.14 | 79 | 1015.7 |
| 20260502024511 | 37 | 323 | 0.0 | 0.0 | 0.00 | 0.22 | 0.14 | 78 | 1015.7 |
| 20260502024050 | 37 | 323 | 0.0 | 0.0 | 0.00 | 0.22 | 0.14 | 78 | 1015.7 |
| 20260502023508 | 38 | 323 | 0.0 | 0.0 | 0.00 | 0.22 | 0.14 | 78 | 1015.6 |
| 20260502023049 | 38 | 323 | 0.0 | 0.0 | 0.00 | 0.22 | 0.14 | 77 | 1015.6 |
| 20260502022529 | 38 | 323 | 0.0 | 0.0 | 0.00 | 0.22 | 0.14 | 77 | 1015.6 |
| 20260502022010 | 38 | 323 | 0.0 | 0.0 | 0.00 | 0.22 | 0.14 | 77 | 1015.6 |
| 20260502021529 | 39 | 323 | 0.0 | 0.0 | 0.00 | 0.22 | 0.14 | 76 | 1015.5 |
| 20260502021059 | 39 | 323 | 0.0 | 0.0 | 0.00 | 0.22 | 0.14 | 76 | 1015.5 |
| 20260502021004 | 39 | 323 | 0.0 | 0.0 | 0.00 | 0.22 | 0.14 | 76 | 1015.5 |
| 20260502020535 | 39 | 323 | 0.0 | 0.0 | 0.00 | 0.22 | 0.14 | 76 | 1015.5 |
| 20260502020007 | 39 | 323 | 0.0 | 0.0 | 0.00 | 0.25 | 0.14 | 76 | 1015.4 |
| 20260502015547 | 39 | 323 | 0.0 | 0.0 | 0.00 | 0.25 | 0.14 | 75 | 1015.3 |
| 20260502015022 | 39 | 323 | 0.0 | 0.0 | 0.00 | 0.25 | 0.14 | 75 | 1015.2 |
| 20260502014556 | 40 | 323 | 0.0 | 3.0 | 0.00 | 0.25 | 0.14 | 74 | 1015.2 |
| 20260502014036 | 40 | 323 | 0.0 | 5.0 | 0.00 | 0.25 | 0.14 | 73 | 1015.1 |
| 20260502013515 | 40 | 317 | 1.0 | 7.0 | 0.00 | 0.25 | 0.14 | 73 | 1015.2 |
| 20260502013055 | 40 | 313 | 3.0 | 7.0 | 0.00 | 0.25 | 0.14 | 73 | 1015.1 |
| 20260502012527 | 41 | 333 | 0.0 | 5.0 | 0.00 | 0.25 | 0.14 | 72 | 1015.0 |
| 20260502012057 | 41 | 331 | 1.0 | 6.0 | 0.00 | 0.25 | 0.14 | 72 | 1014.9 |
| 20260502012008 | 41 | 337 | 1.0 | 6.0 | 0.00 | 0.25 | 0.14 | 72 | 1014.9 |
| 20260502011540 | 41 | 296 | 2.0 | 10.0 | 0.00 | 0.25 | 0.14 | 72 | 1015.0 |
| 20260502011052 | 41 | 347 | 2.0 | 10.0 | 0.00 | 0.25 | 0.14 | 73 | 1014.9 |
| 20260502010530 | 41 | 311 | 3.0 | 8.0 | 0.00 | 0.25 | 0.14 | 74 | 1014.9 |
| 20260502010007 | 41 | 355 | 0.0 | 4.0 | 0.00 | 0.25 | 0.14 | 75 | 1014.8 |
| 20260502005539 | 42 | 346 | 0.0 | 3.0 | 0.00 | 0.25 | 0.14 | 74 | 1014.8 |
| 20260502005012 | 42 | 347 | 0.0 | 6.0 | 0.00 | 0.25 | 0.14 | 74 | 1014.7 |
| 20260502004555 | 42 | 347 | 1.0 | 6.0 | 0.00 | 0.25 | 0.14 | 74 | 1014.7 |
| 20260502004012 | 42 | 15 | 0.0 | 3.0 | 0.00 | 0.25 | 0.14 | 74 | 1014.7 |
| 20260502003542 | 43 | 5 | 0.0 | 3.0 | 0.00 | 0.25 | 0.14 | 74 | 1014.6 |
| 20260502003022 | 43 | 323 | 0.0 | 7.0 | 0.00 | 0.25 | 0.14 | 74 | 1014.6 |
| 20260502002509 | 43 | 322 | 1.0 | 7.0 | 0.00 | 0.25 | 0.14 | 73 | 1014.6 |